THOR ABLESTAR DEB, 420

Orbit data source: Space-Track

THOR ABLESTAR DEB, 420 is space debris in LEO originally from a launch on Thu, 29 Jun 1961 UTC launched from the Air Force Eastern Test Range (AFETR). Debris objects in space refer to the collection of defunct objects orbiting the Earth. Examples of debris include non-operational satellites, rocket bodies, and fragments generated from explosions, collisions, or faulty payload assembly.

Loading next visibility...
Identifier
420, 1961-015EV
Orbit
LEO
Country
Flag of USUS
Related business
Manufacturer
Unknown
Mission
Spacecraft
Bus & Motor
Unknown
Mass
Unknown
Launch date (UTC)
1961-06-29 (65 years ago)
Launch vehicle
Unknown
Launch site
Air Force Eastern Test Range (AFETR)
Object type
Payload
Rocket body
Debris
Shape & HBR
Unknown shape, 0.1 m
Radar Cross Section
Medium (>0.1 m² and <1 m²)

Expand to show TLE details & history
Last TLE update: 20 hours ago

TLE from 20 hours ago
0 THOR ABLESTAR DEB
1 00420U 61015EV  26166.03837608  .00000825  00000-0  31190-3 0  9997
2 00420  66.8135 282.5811 0086952 214.4665 145.0779 14.34084485353276
Epoch: 2026-06-15T00:55Z
TLE epoch observation values (Epoch: 2026-06-15T00:55:15.693Z)
Latitude
-0.00009°
Longitude
5.43517°
Altitude
831.432 km
Speed
7.411 km/s
True Right ascension
18h 50m 19s
True Declination
0° 00' 00"
Sunlit
Object was in full shadow at epoch
Visualization orbit readout
Latitude
Unknown
Longitude
Unknown
Altitude
Unknown
Speed
Unknown
Apparent Right ascension
Unknown
Apparent Declination
Unknown
Sunlit
N/A
Visualization observer readout
Local Sidereal Time
07:25:52
Azimuth
Unknown
Elevation
Unknown
Doppler factor
Unknown
Orbital elements
Apogee altitude
838.68 km
Perigee altitude
714.258 km
Semi-major axis
7,154.606 km
Eccentricity
0.0087
Inclination
66.8135°
RAAN
282.5811°
Arg. of periapsis
214.4665°
True anomaly
145.64325°
Mean anomaly
145.0779°
Eccentric anomaly
145.36108°
Mean motion
3.58645 °/min
Orbital period
100.38 mins
BSTAR
0.0003119

Documentation

Showing up to 5 results
|